Regional Weather Roundup
Issued by NWS Charleston, SC

Current Version | Previous Version | Graphics & Text | Print | Product List | Glossary On
Versions: 1 2 3 4 5 6 7 8 9 10 11 12 13 14 15 16 17 18 19 20 21 22 23 24 25 26 27 28 29 30 31 32 33 34 35 36 37 38 39 40 41 42 43 44 45 46 47 48 49 50
000
ASUS42 KCHS 041528
RWRCHS

REGIONAL WEATHER ROUNDUP
NATIONAL WEATHER SERVICE CHARLESTON SC
1100 AM EDT WED MAY 04 2016

NOTE: "FAIR" INDICATES FEW OR NO CLOUDS BELOW 12,000 FEET WITH NO
SIGNIFICANT WEATHER AND/OR OBSTRUCTIONS TO VISIBILITY.

NOT ALL STATIONS ARE QUALITY CONTROLLED. USE DATA WITH CAUTION...
ESPECIALLY DEWPOINT OBSERVATIONS.

SCZ027-030-031-034>040-042>050-041600-
...SOUTHEAST SOUTH CAROLINA...

CITY           SKY/WX    TMP DP  RH WIND       PRES   REMARKS
N CHARLESTON   MOSUNNY   76  57  51 NW12      29.72S
WATERFRONT PRK   N/A     72  61  68 W7        29.70F
MOUNT PLEASANT FAIR      75  57  53 W8        29.71S
JOHNS ISLAND   FAIR      75  59  57 NW13      29.72F
PINOPOLIS        N/A     73  63  68 W7        29.64F
MONCKS CORNER  FAIR      72  50  46 W5        29.72R
SUMMERVILLE    FAIR      77  55  47 W8        29.73S
BEAUFORT MCAS  MOSUNNY   75  56  51 NW10      29.75S
BEAUFORT ARPT  FAIR      77  54  44 NW15      29.74F
HILTON HEAD IS MOSUNNY   79  61  53 W6        29.77S
WALTERBORO     SUNNY     77  52  41 W12       29.75S
ALLENDALE      FAIR      72  48  43 VRB7G14   29.75R

...SOUTHERN MIDLANDS AND PEE DEE...

CITY           SKY/WX    TMP DP  RH WIND       PRES   REMARKS
GEORGETOWN     FAIR      73  61  64 SW7       29.71R
KINGSTREE      FAIR      73  57  56 SW10      29.69S
ORANGEBURG     SUNNY     74  49  41 W14       29.72S
BARNWELL       FAIR      75  52  43 NW9       29.75S
AIKEN          FAIR      70  50  49 W8        29.78S
MANNING        FAIR      72  52  49 W5        29.70S
COLUMBIA       MOSUNNY   72  53  51 NW9       29.71F
SUMTER         MOSUNNY   72  57  58 NE3       29.68F
FLORENCE       SUNNY     72  57  59 VRB5      29.69S
MYRTLE BEACH   PTSUNNY   75  61  60 W7        29.70F
N MYRTLE BEACH PTSUNNY   75  65  70 VRB7      29.67F

$$

GAZ063-065-086>088-099>101-113>116-118-119-134>141-150-041600-
...SOUTHEAST GEORGIA...

CITY           SKY/WX    TMP DP  RH WIND       PRES   REMARKS
SAVANNAH ARPT  MOSUNNY   75  55  49 NW13      29.77S
HUNTER AAF     SUNNY     74  58  57 W13       29.74F
FORT STEWART   SUNNY     74  55  51 W8        29.76F
STATESBORO     SUNNY     76  53  45 W12G18    29.78S
SYLVANIA       SUNNY     73  55  51 W10G16    29.78S
CLAXTON        FAIR      74  54  49 W7        29.79S

...CSRA...CENTRAL AND FAR SOUTHEAST GEORGIA...

CITY           SKY/WX    TMP DP  RH WIND       PRES   REMARKS
THOMSON        SUNNY     70  48  44 W9        29.82S
AUGUSTA-BUSH   SUNNY     72  45  37 NW10      29.75S
AUGUSTA-DANIEL SUNNY     70  49  47 W9        29.76F
SWAINSBORO     FAIR      72  43  35 NW14      29.80S
VIDALIA        SUNNY     72  48  43 NW12      29.81R
EASTMAN        FAIR      71  46  40 N10       29.84S
HAZLEHURST     FAIR      74  48  40 NW7G16    29.81R
ALMA           SUNNY     72  52  49 N6        29.82R
WAYCROSS       MOSUNNY   74  57  56 NW10      29.80F
JESUP          FAIR      77  57  50 NW8G18    29.80S
BAXLEY         FAIR      73  52  46 NW9G17    29.81S
BRUNSWICK      MOSUNNY   81  63  54 NW7       29.79S
SAINT SIMONS   MOSUNNY   75  60  59 NW8       29.78S

$$

SCZ027-028-034-036>038-045-046-048>050-GAZ119-141-041600-
...LAKE AND SUPPLEMENTAL COASTAL OBSERVATIONS...

STATION/POSITION TIME  TEMP    WIND        PRES    WAVE   SWELL
                       AIR SEA DIR/SP/G            HT/PER HT/PER/DIR
                 (UTC) (F)     (DEG/KT/KT) (MB)    (FT/S) (FT/S/D)
WINYAH BAY       1445   71     250/  6     1005.0S
LAKE MURRAY      1400   67     300/  6/  9 1006.4F
ACE BASIN NERRS  1400   72     290/  4     1007.0F
FORT PULASKI     1500   71 75  290/ 12/ 15 1008.0S
SAPELO ISLAND    1500   75     300/  9     1008.0S

$$

ANZ835-935-AMZ111-154-330-350-352-354-370-450-454-472-041600-
...C-MAN AND BUOY OBSERVATIONS...

STATION/POSITION TIME  TEMP    WIND        PRES    WAVE   SWELL
                       AIR SEA DIR/SP/G            HT/PER HT/PER/DIR
                 (UTC) (F)     (DEG/KT/KT) (MB)    (FT/S) (FT/S/D)
BUOY 41004       1450   72 74  270/ 14/ 16 1005.8R   3/ 7   2/ 7
BUOY 41008       NOT AVBL
FOLLY BEACH CMAN 1500   74     290/  6/  9 1006.6R
CAPERS NEARSHORE 1508   72 71  280/ 12/ 16 1006.0R
FRIPP NEARSHORE  1508   72 72  300/ 12/ 16 1006.7S


STATION/POSITION TIME  TEMP    WIND        PRES    WAVE   SWELL
                       AIR SEA DIR/SP/G            HT/PER HT/PER/DIR
                 (UTC) (F)     (DEG/KT/KT) (MB)    (FT/S) (FT/S/D)
5E ST. MARYS GA  1421      72                N/A     2/ 7
FRYING PAN BUOY  1500   73 73  250/ 14/ 17 1004.9F
BUOY 41025       1450   70 71  260/ 10/ 12 1004.6F   4/ 8   3/180/ 8
CAPE LOOKOUT NC  1500   65     210/  6/  8 1004.6S
BUOY 41002       1450   72 74  140/ 12/ 14 1007.4F   5/ 7   3/230/ 7
BUOY 41010       1420   79 78  250/ 16/ 17 1009.2R
ST AUGUSTINE FL  1500   74 71  260/  5/  6 1009.5R


$$




USA.gov is the U.S. government's official web portal to all federal, state and local government web resources and services.